Home   Weather   Rennes   Past weeks

Flag for France Past Weather in Rennes, Brittany, France — Yesterday and Last 2 Weeks

Now
32 °F

Clear.


Feels Like: 32 °F
Forecast: 21 / 44 °F
Wind: No wind

Location: Rennes Airport

Current Time: Jan 23, 2017 at 11:49:40 am

Latest Report: Jan 23, 2017 at 11:00 am


Visibility: 4 mi

Pressure: 30.36 "Hg

Humidity: 87%

Dew Point: 28 °F

Location of RennesLocation

Past Weather in Rennes — Graph

°F

Rennes Temperature Yesterday

Maximum temperature yesterday: 48 °F (at 3:30 pm)
Minimum temperature yesterday: 21 °F (at 8:30 am)
Average temperature yesterday: 32 °F

High & Low Weather Summary for the Past Weeks

 TemperatureHumidityPressure
High54 °F (Jan 11, 12:00 pm)100% (Jan 8, 10:30 am)30.57 "Hg (Jan 8, 10:30 am)
Low18 °F (Jan 21, 8:30 am)40% (Jan 22, 3:30 pm)29.47 "Hg (Jan 12, 4:30 pm)
Average38 °F85%30.26 "Hg
* Reported Jan 8 10:00 am — Jan 23 10:30 am, Rennes, Weather by CustomWeather, © 2017

Note: Actual official high and low records may vary slightly from our data, if they occured in-between our weather recording intervals... More about our weather records

Advertising

Rennes Weather History for the Previous 24 Hours

Scroll right to see more
 ConditionsComfort  
Time TempWeatherWind HumidityBarometerVisibility
10:30 am
Mon, Jan 23
30 °FIce fog.No wind93%30.36 "Hg3 mi
10:00 am27 °FIce fog.2 mph93%30.36 "Hg2 mi
9:30 am25 °FIce fog.1 mph93%30.33 "Hg2 mi
9:00 am23 °FIce fog.No wind93%30.33 "Hg1 mi
8:30 am23 °FIce fog.2 mph93%30.33 "Hg2 mi
8:00 am25 °FIce fog.2 mph100%30.33 "Hg3 mi
7:30 am25 °FIce fog.1 mph93%30.33 "Hg3 mi
7:00 am23 °FIce fog.2 mph93%30.33 "Hg2 mi
6:30 am25 °FIce fog.No wind93%30.30 "Hg3 mi
6:00 am25 °FIce fog.No wind93%30.30 "Hg3 mi
5:30 am25 °FIce fog.2 mph100%30.30 "Hg2 mi
5:00 am27 °FIce fog.1 mph93%30.30 "Hg3 mi
4:30 am25 °FIce fog.2 mph93%30.30 "Hg2 mi
4:00 am25 °FIce fog.2 mph93%30.30 "Hg3 mi
3:30 am25 °FIce fog.No wind100%30.30 "Hg3 mi
3:00 am27 °FIce fog.1 mph93%30.30 "Hg3 mi
2:30 am27 °FIce fog.2 mph93%30.30 "Hg2 mi
2:00 am27 °FIce fog.3 mph93%30.30 "Hg2 mi
1:30 am27 °FIce fog.3 mph100%30.30 "Hg3 mi
1:00 am27 °FIce fog.3 mph93%30.30 "Hg3 mi
12:30 am27 °FClear.2 mph93%30.30 "Hg4 mi
12:00 am28 °FClear.2 mph93%30.30 "Hg4 mi
11:30 pm
Sun, Jan 22
28 °FClear.3 mph86%30.30 "Hg4 mi
11:00 pm28 °FClear.No wind86%30.30 "Hg4 mi
10:30 pm28 °FClear.1 mph86%30.30 "Hg5 mi
10:00 pm32 °FClear.2 mph87%30.30 "Hg4 mi
9:30 pm30 °FClear.2 mph86%30.30 "Hg5 mi
9:00 pm34 °FClear.3 mph75%30.30 "Hg5 mi
8:30 pm34 °FClear.2 mph75%30.30 "Hg6 mi
8:00 pm34 °FClear.2 mph81%30.30 "Hg10 mi
7:30 pm36 °FClear.5 mph65%30.27 "Hg10 mi
7:00 pm37 °FClear.2 mph60%30.27 "Hg10 mi
6:30 pm41 °FClear.2 mph53%30.27 "Hg10 mi
6:00 pm43 °FClear.No wind49%30.27 "Hg10 mi
5:30 pm45 °FSunny.2 mph46%30.24 "Hg10 mi
5:00 pm46 °FSunny.2 mph50%30.24 "Hg10 mi
4:30 pm46 °FSunny.3 mph46%30.24 "Hg10 mi
4:00 pm48 °FPassing clouds.3 mph40%30.24 "HgN/A
3:30 pm48 °FSunny.3 mph40%30.24 "Hg10 mi
3:00 pm46 °FPassing clouds.3 mph46%30.24 "HgN/A
2:30 pm46 °FSunny.3 mph50%30.24 "Hg10 mi
2:00 pm43 °FPassing clouds.3 mph57%30.24 "HgN/A
1:30 pm43 °FClear.5 mph57%30.27 "Hg6 mi
1:00 pm41 °FClear.6 mph61%30.27 "Hg6 mi
12:30 pm41 °FClear.No wind61%30.27 "Hg5 mi
12:00 pm39 °FClear.No wind70%30.27 "Hg4 mi
11:30 am34 °FClear.No wind87%30.27 "Hg4 mi
11:00 am32 °FIce fog.No wind93%30.27 "Hg2 mi
Weather by CustomWeather, © 2017

See weather overviewHow to use our weather pages